星链-2536 (STARLINK-2536 )

导读

STARLINK-2536是美国太空探索技术公司(SpaceX)于2021年4月29日发射的Starlink V1.0版本卫星,属于星链(Starlink)全球低轨卫星互联网星座的组成部分,运行在近地点355.133km、远地点357.473km的近地轨道,轨道倾角43.001°,参与构建全球高速低延迟互联网服务,旨在覆盖偏远区域,缩小全球数字鸿沟。

基本信息
目录编号:
48310
目录名称:
STARLINK-2536
国际标识:
2021-036AL
轨道中心:
EARTH
卫星名称:
星链-2536
卫星全名:
星链-2536 (STARLINK-2536 )
卫星状态:
在轨 (已飞行1954 天)
发射日期:
2021-04-29 UTC
国别 :
美国 (US)
星等 :
--
轨道信息
数据来源 国际轨道数据
星历时间: 2026-09-02T22:18:32+0800
1天前
查看轨道信息
半长轴: 6848.9km
偏心率: 0.0001059
轨道倾角: 53.161°
近地点辐角 76.608°
升交点赤经 348.163°
平近点角 283.504°
近地点: 470.037km
远地点: 471.489km
周期: 94.014分钟
每日圈数: 15.316926
详细信息
固有亮度:
5
最大亮度:
2.5
卫星平台:
Starlink V1.0
覆盖范围:
全球
运营商:
太空探索技术公司
运营商所在国:
美国
制造商(研发单位):
太空探索技术公司
制造商所在国:
美国
使用方式:
暂无
卫星简介
星链(Starlink)计划是由太空探索技术公司(SpaceX)提出的一个巨型低轨卫星互联网星座项目,计划在2019年至2024年间在太空搭建由约1.2万颗卫星组成的“星链”网络,其中1584颗将部署在地球上空550千米处的近地轨道,并从2020年开始工作。该卫星仍在工作。
2D轨道图
3D轨道图
轨道高度分析图
轨道倾角分析图
轨道综合分析图
查看轨道综合分析图